• en France
  • Liste des pays
  • À 7 jours
  • Température de l'eau
  • Carte satellitaire
  • Carte météo
  • Widgets météo
  • user-avatar
    Se connecter

    Météo par heure à Gajne

    Ce jour, 18 Juin, Lundi

    Heure Température Précipitation Vent Pression Humidité
    00:00 +19°C° 0 mm 1 m/s 748 mmHg 76%
    01:00 +19°C° 0 mm 1 m/s 748 mmHg 79%
    02:00 +18°C° 0 mm 1 m/s 748 mmHg 82%
    03:00 +17°C° 0 mm 2 m/s 748 mmHg 85%
    04:00 +16°C° 0 mm 2 m/s 748 mmHg 87%
    05:00 +18°C° 0 mm 2 m/s 749 mmHg 82%
    06:00 +19°C° 0 mm 3 m/s 749 mmHg 78%
    07:00 +20°C° 0 mm 3 m/s 749 mmHg 73%
    08:00 +22°C° 0,3 mm 3 m/s 749 mmHg 69%
    09:00 +24°C° 0,3 mm 3 m/s 750 mmHg 65%
    10:00 +25°C° 0,3 mm 3 m/s 750 mmHg 61%
    11:00 +25°C° 0,4 mm 3 m/s 750 mmHg 61%
    12:00 +25°C° 0,4 mm 3 m/s 750 mmHg 61%
    13:00 +26°C° 0,4 mm 4 m/s 750 mmHg 61%
    14:00 +25°C° 0,2 mm 4 m/s 750 mmHg 61%
    15:00 +25°C° 0,2 mm 4 m/s 750 mmHg 62%
    16:00 +23°C° 0,2 mm 4 m/s 750 mmHg 62%
    17:00 +22°C° 0 mm 4 m/s 750 mmHg 66%
    18:00 +21°C° 0 mm 3 m/s 750 mmHg 70%
    19:00 +19°C° 0 mm 3 m/s 750 mmHg 74%
    20:00 +18°C° 0 mm 2 m/s 750 mmHg 78%
    21:00 +16°C° 0 mm 2 m/s 751 mmHg 81%
    22:00 +15°C° 0 mm 1 m/s 751 mmHg 85%
    23:00 +14°C° 0 mm 1 m/s 751 mmHg 84%

    Demain, 19 Juin, Mardi

    Heure Température Précipitation Vent Pression Humidité
    00:00 +14°C° 0 mm 1 m/s 751 mmHg 84%
    01:00 +14°C° 0 mm 1 m/s 751 mmHg 83%
    02:00 +14°C° 0 mm 1 m/s 751 mmHg 83%
    03:00 +14°C° 0 mm 1 m/s 751 mmHg 82%
    04:00 +14°C° 0 mm 1 m/s 751 mmHg 81%
    05:00 +16°C° 0 mm 2 m/s 751 mmHg 76%
    06:00 +18°C° 0 mm 2 m/s 751 mmHg 72%
    07:00 +20°C° 0 mm 3 m/s 751 mmHg 67%
    08:00 +21°C° 0 mm 3 m/s 751 mmHg 63%
    09:00 +22°C° 0 mm 4 m/s 751 mmHg 59%
    10:00 +25°C° 0 mm 4 m/s 751 mmHg 55%
    11:00 +25°C° 0,1 mm 4 m/s 751 mmHg 57%
    12:00 +25°C° 0,1 mm 4 m/s 751 mmHg 59%
    13:00 +25°C° 0,1 mm 5 m/s 751 mmHg 62%
    14:00 +23°C° 0,1 mm 4 m/s 751 mmHg 63%
    15:00 +23°C° 0,1 mm 4 m/s 751 mmHg 64%
    16:00 +23°C° 0,1 mm 4 m/s 751 mmHg 65%
    17:00 +22°C° 0 mm 4 m/s 751 mmHg 69%
    18:00 +21°C° 0 mm 3 m/s 751 mmHg 73%
    19:00 +21°C° 0 mm 2 m/s 751 mmHg 76%
    20:00 +19°C° 0 mm 2 m/s 751 mmHg 81%
    21:00 +19°C° 0 mm 1 m/s 751 mmHg 85%
    22:00 +16°C° 0 mm 1 m/s 752 mmHg 90%
    23:00 +16°C° 0 mm 1 m/s 752 mmHg 90%

    Après-demain, 20 Juin, Mercredi

    Heure Température Précipitation Vent Pression Humidité
    00:00 +15°C° 0 mm 2 m/s 752 mmHg 91%
    01:00 +15°C° 0 mm 2 m/s 752 mmHg 92%
    02:00 +15°C° 0 mm 2 m/s 752 mmHg 92%
    03:00 +15°C° 0 mm 2 m/s 752 mmHg 93%
    04:00 +15°C° 0 mm 2 m/s 753 mmHg 93%
    05:00 +16°C° 0 mm 2 m/s 753 mmHg 85%
    06:00 +17°C° 0 mm 3 m/s 753 mmHg 78%
    07:00 +18°C° 0 mm 3 m/s 753 mmHg 70%
    08:00 +20°C° 0 mm 3 m/s 753 mmHg 64%
    09:00 +21°C° 0 mm 3 m/s 754 mmHg 57%
    10:00 +22°C° 0 mm 3 m/s 754 mmHg 51%
    11:00 +24°C° 0 mm 3 m/s 753 mmHg 49%
    12:00 +24°C° 0 mm 3 m/s 753 mmHg 46%
    13:00 +25°C° 0 mm 3 m/s 753 mmHg 44%
    14:00 +25°C° 0 mm 3 m/s 753 mmHg 45%
    15:00 +25°C° 0 mm 3 m/s 753 mmHg 47%
    16:00 +25°C° 0 mm 3 m/s 752 mmHg 48%
    17:00 +24°C° 0 mm 2 m/s 752 mmHg 54%
    18:00 +23°C° 0 mm 1 m/s 752 mmHg 61%
    19:00 +22°C° 0 mm 1 m/s 752 mmHg 67%
    20:00 +20°C° 0 mm 1 m/s 752 mmHg 70%
    21:00 +19°C° 0 mm 1 m/s 752 mmHg 73%
    22:00 +16°C° 0 mm 1 m/s 752 mmHg 77%
    23:00 +16°C° 0 mm 2 m/s 751 mmHg 77%

    21 Juin, Jeudi

    Heure Température Précipitation Vent Pression Humidité
    00:00 +15°C° 0 mm 2 m/s 751 mmHg 77%
    01:00 +15°C° 0 mm 2 m/s 751 mmHg 77%
    02:00 +15°C° 0 mm 2 m/s 750 mmHg 77%
    03:00 +15°C° 0 mm 2 m/s 750 mmHg 76%
    04:00 +15°C° 0 mm 2 m/s 750 mmHg 76%
    05:00 +17°C° 0 mm 3 m/s 749 mmHg 72%
    06:00 +19°C° 0 mm 3 m/s 749 mmHg 68%
    07:00 +22°C° 0 mm 3 m/s 748 mmHg 64%
    08:00 +23°C° 0 mm 4 m/s 748 mmHg 61%
    09:00 +25°C° 0 mm 4 m/s 747 mmHg 57%
    10:00 +27°C° 0 mm 4 m/s 747 mmHg 54%
    11:00 +27°C° 0,1 mm 5 m/s 746 mmHg 54%
    12:00 +28°C° 0,1 mm 5 m/s 745 mmHg 55%
    13:00 +28°C° 0,1 mm 5 m/s 744 mmHg 56%
    14:00 +27°C° 0,7 mm 4 m/s 744 mmHg 62%
    15:00 +27°C° 0,7 mm 4 m/s 743 mmHg 68%
    16:00 +26°C° 0,7 mm 4 m/s 742 mmHg 75%
    17:00 +25°C° 1,2 mm 4 m/s 742 mmHg 79%
    18:00 +23°C° 1,2 mm 4 m/s 741 mmHg 83%
    19:00 +21°C° 1,2 mm 4 m/s 741 mmHg 88%
    20:00 +20°C° 0,7 mm 4 m/s 741 mmHg 90%
    21:00 +19°C° 0,7 mm 5 m/s 741 mmHg 92%
    22:00 +16°C° 0,7 mm 5 m/s 741 mmHg 94%
    23:00 +15°C° 0,1 mm 5 m/s 741 mmHg 93%

    22 Juin, Vendredi

    Heure Température Précipitation Vent Pression Humidité
    00:00 +13°C° 0,1 mm 5 m/s 742 mmHg 92%
    01:00 +12°C° 0,1 mm 5 m/s 742 mmHg 91%
    02:00 +10°C° 0 mm 5 m/s 742 mmHg 91%
    03:00 +9°C° 0 mm 5 m/s 743 mmHg 91%
    04:00 +9°C° 0 mm 5 m/s 743 mmHg 90%
    05:00 +10°C° 0 mm 5 m/s 743 mmHg 85%
    06:00 +11°C° 0 mm 6 m/s 744 mmHg 79%
    07:00 +13°C° 0 mm 6 m/s 744 mmHg 73%
    08:00 +14°C° 0 mm 6 m/s 744 mmHg 67%
    09:00 +14°C° 0 mm 6 m/s 744 mmHg 60%
    10:00 +15°C° 0 mm 6 m/s 745 mmHg 54%
    11:00 +16°C° 0 mm 6 m/s 745 mmHg 52%
    12:00 +16°C° 0 mm 7 m/s 745 mmHg 50%
    13:00 +17°C° 0 mm 7 m/s 744 mmHg 48%
    14:00 +17°C° 0,1 mm 7 m/s 744 mmHg 49%
    15:00 +16°C° 0,1 mm 6 m/s 744 mmHg 49%
    16:00 +16°C° 0,1 mm 6 m/s 744 mmHg 50%
    17:00 +15°C° 0,1 mm 5 m/s 744 mmHg 56%
    18:00 +14°C° 0,1 mm 4 m/s 745 mmHg 62%
    19:00 +13°C° 0,1 mm 3 m/s 745 mmHg 68%
    20:00 +12°C° 0 mm 3 m/s 745 mmHg 73%
    21:00 +11°C° 0 mm 3 m/s 745 mmHg 78%
    22:00 +9°C° 0 mm 3 m/s 745 mmHg 83%
    23:00 +9°C° 0 mm 3 m/s 745 mmHg 86%

    23 Juin, Samedi

    Heure Température Précipitation Vent Pression Humidité
    00:00 +9°C° 0 mm 3 m/s 745 mmHg 88%
    01:00 +8°C° 0 mm 3 m/s 745 mmHg 91%
    02:00 +8°C° 0 mm 3 m/s 745 mmHg 92%
    03:00 +8°C° 0 mm 3 m/s 745 mmHg 93%
    04:00 +8°C° 0 mm 3 m/s 746 mmHg 94%
    05:00 +10°C° 0 mm 3 m/s 746 mmHg 87%
    06:00 +12°C° 0 mm 3 m/s 746 mmHg 79%
    07:00 +14°C° 0 mm 3 m/s 746 mmHg 72%
    08:00 +15°C° 0,1 mm 4 m/s 746 mmHg 66%
    09:00 +17°C° 0,1 mm 4 m/s 746 mmHg 61%
    10:00 +17°C° 0,1 mm 5 m/s 746 mmHg 55%
    11:00 +17°C° 0,4 mm 5 m/s 746 mmHg 60%
    12:00 +16°C° 0,4 mm 6 m/s 746 mmHg 65%
    13:00 +16°C° 0,4 mm 6 m/s 746 mmHg 70%
    14:00 +15°C° 0,4 mm 6 m/s 746 mmHg 73%
    15:00 +15°C° 0,4 mm 6 m/s 746 mmHg 77%
    16:00 +14°C° 0,4 mm 5 m/s 746 mmHg 81%
    17:00 +14°C° 0,3 mm 5 m/s 746 mmHg 84%
    18:00 +13°C° 0,3 mm 4 m/s 746 mmHg 87%
    19:00 +13°C° 0,3 mm 4 m/s 747 mmHg 90%
    20:00 +12°C° 0,1 mm 4 m/s 747 mmHg 92%
    21:00 +11°C° 0,1 mm 3 m/s 747 mmHg 94%
    22:00 +11°C° 0,1 mm 3 m/s 748 mmHg 96%
    23:00 +10°C° 0 mm 3 m/s 748 mmHg 96%
    Voir plus